TimePST,TemperatureF,Dew PointF,Humidity,Sea Level PressureIn,VisibilityMPH,Wind Direction,Wind SpeedMPH,Gust SpeedMPH,PrecipitationIn,Events,Conditions,WindDirDegrees,DateUTC
12:15 AM,26.6,26.6,100,29.86,8.0,ESE,3.5,-,N/A,,Clear,120,2011-11-20 08:15:00
12:35 AM,28.4,26.6,93,29.86,8.0,ENE,3.5,-,N/A,,Clear,70,2011-11-20 08:35:00
12:55 AM,26.6,24.8,93,29.85,8.0,East,3.5,-,N/A,,Clear,100,2011-11-20 08:55:00
1:15 AM,26.6,24.8,93,29.85,8.0,East,3.5,-,N/A,,Clear,80,2011-11-20 09:15:00
1:35 AM,24.8,24.8,100,29.85,8.0,ESE,4.6,-,N/A,,Clear,110,2011-11-20 09:35:00
1:55 AM,26.6,24.8,93,29.85,8.0,ENE,3.5,-,N/A,,Clear,70,2011-11-20 09:55:00
2:15 AM,26.6,24.8,93,29.84,8.0,East,6.9,-,N/A,,Clear,90,2011-11-20 10:15:00
2:35 AM,26.6,26.6,100,29.85,8.0,South,4.6,-,N/A,,Clear,180,2011-11-20 10:35:00
2:55 AM,28.4,26.6,93,29.84,9.0,Calm,Calm,-,N/A,,Clear,0,2011-11-20 10:55:00
3:55 AM,33.8,30.2,87,29.84,10.0,West,4.6,-,N/A,,Clear,270,2011-11-20 11:55:00
4:55 AM,35.6,30.2,81,29.84,10.0,ENE,10.4,-,N/A,,Clear,70,2011-11-20 12:55:00
5:15 AM,37.4,32.0,81,29.84,10.0,East,8.1,-,N/A,,Clear,80,2011-11-20 13:15:00
5:35 AM,39.2,32.0,75,29.84,10.0,East,9.2,-,N/A,,Clear,80,2011-11-20 13:35:00
5:55 AM,37.4,32.0,81,29.85,10.0,East,9.2,-,N/A,,Clear,80,2011-11-20 13:55:00
6:15 AM,37.4,32.0,81,29.86,10.0,East,10.4,-,N/A,,Clear,80,2011-11-20 14:15:00
6:35 AM,39.2,32.0,75,29.87,10.0,ESE,5.8,-,N/A,,Clear,120,2011-11-20 14:35:00
6:55 AM,37.4,32.0,81,29.88,10.0,SE,5.8,-,N/A,,Clear,130,2011-11-20 14:55:00
7:15 AM,39.2,32.0,75,29.88,10.0,East,8.1,-,N/A,,Clear,100,2011-11-20 15:15:00
7:35 AM,39.2,32.0,75,29.87,10.0,East,12.7,-,N/A,,Clear,100,2011-11-20 15:35:00
7:55 AM,41.0,32.0,70,29.88,10.0,East,10.4,-,N/A,,Clear,90,2011-11-20 15:55:00
8:15 AM,41.0,32.0,70,29.88,10.0,East,12.7,19.6,N/A,,Clear,80,2011-11-20 16:15:00
8:35 AM,41.0,35.6,81,29.90,9.0,ENE,13.8,25.3,N/A,,Clear,60,2011-11-20 16:35:00
8:55 AM,41.0,33.8,76,29.89,10.0,ENE,15.0,19.6,N/A,,Clear,70,2011-11-20 16:55:00
9:15 AM,42.8,33.8,70,29.89,10.0,East,15.0,20.7,N/A,,Clear,80,2011-11-20 17:15:00
9:35 AM,42.8,33.8,70,29.91,10.0,ESE,17.3,20.7,N/A,,Clear,110,2011-11-20 17:35:00
10:15 AM,39.2,35.6,87,29.90,3.0,ESE,15.0,25.3,N/A,Rain,Light Rain,110,2011-11-20 18:15:00
10:55 AM,39.2,37.4,93,29.90,1.5,East,10.4,-,0.01,Rain,Light Rain,90,2011-11-20 18:55:00
11:15 AM,39.2,37.4,93,29.91,2.5,East,10.4,-,N/A,Rain,Light Rain,90,2011-11-20 19:15:00
11:35 AM,39.2,37.4,93,29.90,3.0,NW,9.2,-,0.01,Rain,Light Rain,320,2011-11-20 19:35:00
11:55 AM,37.4,37.4,100,29.90,2.0,NW,9.2,-,0.05,Rain,Light Rain,320,2011-11-20 19:55:00
12:15 PM,37.4,37.4,100,29.90,2.5,NW,6.9,-,0.01,Rain,Light Rain,310,2011-11-20 20:15:00
12:35 PM,39.2,37.4,93,29.89,3.0,NW,9.2,-,0.03,Rain,Light Rain,310,2011-11-20 20:35:00
12:55 PM,39.2,37.4,93,29.89,2.0,WNW,5.8,-,0.06,Rain,Light Rain,300,2011-11-20 20:55:00
1:15 PM,37.4,37.4,100,29.89,1.8,West,6.9,-,N/A,Rain,Light Rain,280,2011-11-20 21:15:00
1:35 PM,37.4,37.4,100,29.89,1.8,West,4.6,-,0.03,Rain,Light Rain,280,2011-11-20 21:35:00
1:55 PM,39.2,37.4,93,29.89,2.0,West,6.9,-,0.07,Rain,Light Rain,260,2011-11-20 21:55:00
2:15 PM,37.4,35.6,93,29.88,2.5,SSW,3.5,-,0.02,Rain,Light Rain,210,2011-11-20 22:15:00
2:35 PM,37.4,35.6,93,29.88,2.5,SSW,4.6,-,0.04,Rain,Light Rain,210,2011-11-20 22:35:00
2:55 PM,37.4,35.6,93,29.88,3.0,WSW,5.8,-,0.06,Rain,Light Rain,250,2011-11-20 22:55:00
3:15 PM,37.4,35.6,93,29.89,2.0,Calm,Calm,-,0.01,Rain,Light Rain,0,2011-11-20 23:15:00
3:35 PM,37.4,37.4,100,29.90,1.8,West,4.6,-,0.06,Rain,Rain,270,2011-11-20 23:35:00
4:15 PM,37.4,37.4,100,29.90,5.0,South,6.9,-,N/A,Rain,Light Rain,180,2011-11-21 00:15:00
4:35 PM,37.4,35.6,93,29.89,3.0,East,6.9,-,N/A,Rain,Light Rain,100,2011-11-21 00:35:00
4:55 PM,37.4,37.4,100,29.89,8.0,SE,3.5,-,N/A,,Clear,130,2011-11-21 00:55:00
5:35 PM,39.2,35.6,87,29.90,9.0,WNW,6.9,-,N/A,,Clear,300,2011-11-21 01:35:00
5:55 PM,37.4,37.4,100,29.91,10.0,West,4.6,-,N/A,,Clear,280,2011-11-21 01:55:00
6:15 PM,37.4,35.6,93,29.91,10.0,Calm,Calm,-,N/A,,Clear,0,2011-11-21 02:15:00
7:15 PM,35.6,33.8,93,29.93,10.0,ENE,4.6,-,N/A,,Clear,70,2011-11-21 03:15:00
7:35 PM,33.8,32.0,93,29.94,9.0,Calm,Calm,-,N/A,,Clear,0,2011-11-21 03:35:00
7:55 PM,32.0,32.0,100,29.94,7.0,Calm,Calm,-,N/A,,Clear,0,2011-11-21 03:55:00
8:15 PM,32.0,32.0,100,29.95,8.0,Calm,Calm,-,N/A,,Clear,0,2011-11-21 04:15:00
8:35 PM,32.0,32.0,100,29.96,9.0,Calm,Calm,-,N/A,,Clear,0,2011-11-21 04:35:00
8:55 PM,32.0,32.0,100,29.96,7.0,SE,4.6,-,N/A,,Clear,140,2011-11-21 04:55:00
9:15 PM,32.0,32.0,100,29.97,8.0,ESE,3.5,-,N/A,,Clear,120,2011-11-21 05:15:00
9:35 PM,32.0,32.0,100,29.97,10.0,SSE,3.5,-,N/A,,Clear,150,2011-11-21 05:35:00
9:55 PM,30.2,30.2,100,29.98,10.0,ENE,3.5,-,N/A,,Clear,70,2011-11-21 05:55:00
10:15 PM,32.0,32.0,100,29.99,10.0,Calm,Calm,-,N/A,,Clear,0,2011-11-21 06:15:00
10:35 PM,28.4,28.4,100,29.98,10.0,SSE,5.8,-,N/A,,Clear,150,2011-11-21 06:35:00
10:55 PM,30.2,30.2,100,29.98,10.0,ESE,6.9,-,N/A,,Clear,120,2011-11-21 06:55:00
11:15 PM,32.0,32.0,100,29.98,10.0,SE,9.2,-,N/A,,Clear,130,2011-11-21 07:15:00
11:35 PM,32.0,32.0,100,29.99,7.0,ESE,6.9,-,N/A,,Clear,120,2011-11-21 07:35:00
11:55 PM,32.0,32.0,100,29.98,5.0,ESE,3.5,-,N/A,,Clear,110,2011-11-21 07:55:00